[[{"header":{"parameterUnit":"m.s-1","parameterCategory":1,"la1":30.2991,"la2":30.254,"lo1":-89.0895,"lo2":-89.0444,"dy":0.0017,"dx":0.0017,"nx":28,"ny":28,"refTime":"2024-06-24T03:00:00:Z","depth":0,"parameterNumber":2,"parameterNumberName":"U-component_of_WINDS"},"data":[0,0,0,0,0,0,0,0,0,0,0,0,0,0,0,0,0,0,0,0,0,0,0,0,0,0,0,0,0,0,0,0,0,0,0,0,0,0,0,0,0,0,0,0,0,0,0,0,0,0,0,0,0,0,0,0,0,0,2.8234,2.8235,0,2.8314,2.8315,2.8316,2.8285,2.8283,2.8281,2.828,2.8365,2.8369,2.8373,0,0,0,0,0,0,0,0,0,0,0,0,0,2.806,2.8063,2.8234,2.8235,2.8236,2.8314,2.8315,2.8316,2.8286,2.8283,2.8281,2.8279,2.8364,2.8369,2.8373,0,0,0,0,0,0,0,0,0,0,0,0,0,2.8137,2.8064,2.8234,2.823,2.8231,2.8314,2.8315,2.8317,2.8286,2.8283,2.828,2.8278,2.8362,2.8368,2.8374,2.8467,0,0,2.8393,2.8395,0,0,0,0,0,0,0,0,2.8133,2.8144,2.823,2.8231,2.8231,2.8287,2.8285,2.8367,2.8287,2.8265,2.828,2.8276,2.8342,2.8349,2.837,2.8471,2.8475,2.8393,2.8397,2.8399,2.8401,0,0,0,0,0,0,0,2.8128,2.814,2.8266,2.8231,2.8232,2.8226,2.8234,2.8301,2.8318,2.8267,2.8265,2.8274,2.8342,2.8365,2.8372,2.8476,2.8393,2.8398,2.8402,2.8404,2.866,2.8663,0,0,0,0,0,0,2.8122,2.8136,2.8264,2.8268,2.8174,2.8232,2.824,2.8272,2.8317,2.8322,2.8277,2.8273,2.8356,2.8365,2.8375,2.8488,2.8399,2.8405,2.8408,2.8656,2.866,2.8664,0,0,0,0,0,0,2.8118,2.8133,2.826,2.8202,2.8217,2.8237,2.8273,2.8275,2.8298,2.8325,2.8328,2.8297,2.8354,2.8367,2.8445,2.8491,2.8408,2.8413,2.8653,2.8658,2.8662,2.8714,0,0,0,0,0,0,2.8113,2.8132,2.8166,2.8203,2.8221,2.8327,2.8276,2.8279,2.8308,2.8304,2.8345,2.8349,2.8353,2.8436,2.8451,2.8497,2.8418,2.8649,2.8655,2.8661,2.8709,2.872,2.873,0,0,0,0,0,2.8107,2.8178,2.8168,2.8184,2.8264,2.833,2.834,2.8342,2.8312,2.8347,2.8365,2.8347,2.8483,2.8444,2.8461,2.851,2.8646,2.8653,2.866,2.8704,2.8718,2.873,0,0,0,0,0,0,2.8147,2.8183,2.8172,2.8257,2.8291,2.8324,2.8369,2.8357,2.8401,2.8395,2.8397,2.8407,2.8488,2.8507,2.8462,2.8604,2.856,2.8571,2.8588,2.8602,2.8612,2.8606,2.8423,0,0,0,0,0,2.8166,2.8215,2.8244,2.8317,2.8334,2.8349,2.8378,2.8377,2.8412,2.8426,2.8449,2.8486,2.8537,2.857,2.8619,2.8712,2.8721,2.8754,2.8765,2.8773,2.8783,2.8835,2.885,2.8687,2.8687,2.8687,0,0,2.8205,2.8231,2.8262,2.8325,2.8351,2.8404,2.8361,2.8418,2.8458,2.8435,2.851,2.8529,2.857,2.8656,2.8695,2.8675,2.883,2.8782,2.8789,2.8794,2.8844,2.8859,2.8873,2.8692,2.8691,2.869,0,0,2.8304,2.8327,2.8391,2.8418,2.8458,2.8467,2.8483,2.8519,2.853,2.8606,2.859,2.8639,2.8726,2.8756,2.8783,2.8895,2.8881,2.8911,2.8968,2.9019,2.9032,2.9043,2.9084,2.9099,2.892,2.8921,2.8921,0,2.8348,2.8425,2.8425,2.8484,2.8514,2.8495,2.8561,2.8587,2.8641,2.8663,2.8638,2.8749,2.8775,2.8869,2.8896,2.8918,2.8937,2.8906,2.903,2.9041,2.9052,2.9091,2.9107,2.8924,2.8924,2.8923,2.8923,0,2.8478,2.8532,2.8579,2.8631,2.8666,2.8728,2.8739,2.8774,2.8771,2.8784,2.8862,2.8893,2.8948,2.897,2.8968,2.9065,2.9051,2.9028,2.8985,2.9071,2.9108,2.9123,2.8929,2.8928,2.8927,2.8926,0,0,2.8603,2.8655,2.8672,2.8697,2.874,2.8783,2.8845,2.8898,2.8929,2.8968,2.9021,2.9096,2.9076,2.9107,2.9108,2.9152,2.9241,2.9125,2.9126,2.9146,2.9352,2.9369,2.9386,2.9233,2.9235,2.9238,2.9349,0,2.8705,2.8813,2.8816,2.8915,2.8967,2.8951,2.9006,2.9039,2.9054,2.9101,2.9117,2.9171,2.9139,2.9158,2.9202,2.9221,2.9283,2.9213,2.9284,2.9286,2.9274,2.9405,2.9423,2.9526,2.9363,2.9366,2.9367,0,2.8839,2.8881,2.8985,2.9023,2.9045,2.9093,2.9143,2.9188,2.9227,2.9234,2.9269,2.9264,2.933,2.9285,2.9376,2.9329,2.9358,2.9372,2.9376,2.9383,2.9332,2.9416,2.9559,2.9575,2.939,2.9388,2.9387,0,2.892,2.9004,2.9077,2.9098,2.9144,2.9179,2.92,2.9236,2.9268,2.9312,2.9334,2.9385,2.9414,2.9455,2.9465,2.9431,2.9557,2.9512,2.9566,2.9566,2.9593,2.9591,2.9743,2.9612,2.9612,2.9611,2.9611,0,2.9034,2.9099,2.9115,2.916,2.9233,2.9237,2.9309,2.9328,2.936,2.941,2.9401,2.9448,2.9458,2.9508,2.9516,2.9592,2.9605,2.9614,2.9615,2.9615,2.9614,2.9634,2.9627,2.9615,2.9615,2.9614,2.9613,0,2.9138,2.915,2.923,2.9267,2.9278,2.933,2.9362,2.9407,2.9421,2.9484,2.9499,2.9522,2.958,2.9594,2.9664,2.967,2.9759,2.9754,2.9746,2.9746,2.9799,2.9794,2.997,2.9993,2.9846,2.9848,2.9849,0,2.9209,2.9259,2.9302,2.9334,2.9356,2.9408,2.9442,2.9448,2.9483,2.9533,2.9572,2.9629,2.9675,2.977,2.9793,2.9847,2.9843,2.9901,2.9851,2.985,2.9845,2.9842,2.9848,2.9911,2.9912,2.9913,2.9915,0,2.9336,2.9341,2.9388,2.9438,2.9478,2.9518,2.9556,2.9584,2.9596,2.9637,2.9696,2.9732,2.9804,2.9862,2.9916,2.9939,2.993,2.993,2.9946,2.9946,2.9939,2.9944,2.9772,2.9926,2.9925,2.9924,2.9923,2.9923,2.9426,2.947,2.9507,2.9561,2.9591,2.9627,2.9671,2.9691,2.974,2.9798,2.98,2.9865,2.9905,2.9977,3.0004,3.0056,3.0039,3.0061,3.0067,3.0072,3.0077,2.9931,3.0066,3.0066,3.0066,3.0066,3.0065,0,2.9553,2.9577,2.9626,2.968,2.9723,2.971,2.9752,2.9789,2.9846,2.9884,2.993,2.9999,3.0056,3.0084,3.014,3.0177,3.0174,3.0192,3.0189,3.0195,3.0089,3.0071,3.0193,3.0193,3.0193,3.0193,3.0193,3.0193,2.9624,2.9698,2.9707,2.9796,2.982,2.9883,2.9909,2.9943,2.9973,3.0051,3.0097,3.0115,3.015,3.0209,3.0261,3.0268,3.0289,3.0309,3.0314,3.0215,3.0202,3.019,3.0172,3.0314,3.0314,3.0415,3.0416,3.0417]},{"header":{"parameterUnit":"m.s-1","parameterCategory":1,"la1":30.2991,"la2":30.254,"lo1":-89.0895,"lo2":-89.0444,"dy":0.0017,"dx":0.0017,"nx":28,"ny":28,"refTime":"2024-06-24T03:00:00:Z","depth":0,"parameterNumber":3,"parameterNumberName":"V-component_of_WINDS"},"data":[0,0,0,0,0,0,0,0,0,0,0,0,0,0,0,0,0,0,0,0,0,0,0,0,0,0,0,0,0,0,0,0,0,0,0,0,0,0,0,0,0,0,0,0,0,0,0,0,0,0,0,0,0,0,0,0,0,0,0.2418,0.2418,0,0.2464,0.2464,0.2465,0.2452,0.2451,0.245,0.2449,0.2498,0.25,0.2502,0,0,0,0,0,0,0,0,0,0,0,0,0,0.2319,0.2321,0.2418,0.2418,0.2419,0.2463,0.2464,0.2465,0.2452,0.2451,0.245,0.2449,0.2497,0.2499,0.2502,0,0,0,0,0,0,0,0,0,0,0,0,0,0.2363,0.2321,0.2418,0.2418,0.2418,0.2463,0.2464,0.2465,0.2452,0.2451,0.2449,0.2448,0.2496,0.2499,0.2502,0.2551,0,0,0.2512,0.2514,0,0,0,0,0,0,0,0,0.2361,0.2367,0.2417,0.2418,0.2418,0.245,0.2447,0.2494,0.2453,0.2439,0.2449,0.2447,0.2483,0.2487,0.2499,0.2553,0.2555,0.2513,0.2515,0.2516,0.2517,0,0,0,0,0,0,0,0.2358,0.2365,0.2436,0.2418,0.2419,0.2416,0.242,0.2456,0.2469,0.244,0.244,0.2445,0.2483,0.2496,0.25,0.2556,0.2513,0.2515,0.2517,0.2519,0.2649,0.2651,0,0,0,0,0,0,0.2354,0.2362,0.2434,0.2437,0.2385,0.2418,0.2424,0.2442,0.2468,0.2471,0.2446,0.2444,0.2491,0.2496,0.2502,0.2559,0.2516,0.2519,0.2521,0.2648,0.265,0.2651,0,0,0,0,0,0,0.2352,0.2361,0.2433,0.2399,0.2408,0.2422,0.2442,0.2443,0.2456,0.2473,0.2475,0.2457,0.249,0.2497,0.2538,0.256,0.252,0.2523,0.2646,0.2648,0.265,0.2674,0,0,0,0,0,0,0.2349,0.236,0.2378,0.24,0.241,0.2468,0.2443,0.2445,0.2461,0.2459,0.2483,0.2486,0.249,0.2533,0.2541,0.2564,0.2526,0.2644,0.2647,0.265,0.2671,0.2676,0.2681,0,0,0,0,0,0.2346,0.2384,0.2379,0.2388,0.2434,0.2469,0.2475,0.2478,0.2463,0.2482,0.2492,0.2485,0.2557,0.2538,0.2546,0.2571,0.2643,0.2646,0.265,0.2669,0.2675,0.2681,0,0,0,0,0,0,0.2365,0.2387,0.2382,0.2428,0.2447,0.2467,0.2491,0.2486,0.2509,0.2507,0.251,0.2515,0.2557,0.2568,0.2546,0.2618,0.2597,0.2603,0.2609,0.2615,0.262,0.2617,0.2529,0,0,0,0,0,0.2375,0.2402,0.2419,0.2458,0.2468,0.2478,0.2493,0.2494,0.2514,0.2522,0.2535,0.2555,0.2581,0.2599,0.2625,0.2672,0.2677,0.2693,0.2698,0.2702,0.2707,0.2731,0.2739,0.2663,0.2662,0.2662,0,0,0.2395,0.241,0.2427,0.2463,0.2477,0.2505,0.2484,0.2515,0.2535,0.2527,0.2565,0.2576,0.2598,0.2642,0.2662,0.2652,0.2729,0.2707,0.271,0.2712,0.2736,0.2743,0.2749,0.2665,0.2664,0.2664,0,0,0.2446,0.2461,0.2494,0.2509,0.2531,0.2537,0.2545,0.2565,0.2571,0.261,0.2604,0.2628,0.2674,0.269,0.2704,0.2759,0.2753,0.2767,0.2794,0.2817,0.2823,0.2829,0.2847,0.2854,0.2772,0.2772,0.2772,0,0.2469,0.251,0.2512,0.2543,0.2558,0.255,0.2584,0.2598,0.2627,0.2638,0.2627,0.2683,0.2698,0.2744,0.2757,0.277,0.2778,0.2764,0.2822,0.2828,0.2833,0.285,0.2857,0.2773,0.2773,0.2773,0.2773,0,0.2536,0.2565,0.2589,0.2617,0.2635,0.2667,0.2673,0.2691,0.269,0.2697,0.2736,0.2753,0.2781,0.2792,0.2792,0.2838,0.2831,0.2821,0.2801,0.2841,0.2858,0.2865,0.2775,0.2775,0.2774,0.2774,0,0,0.2602,0.2629,0.2638,0.2649,0.2672,0.2694,0.2725,0.2752,0.2767,0.2787,0.2813,0.2851,0.2841,0.2857,0.2858,0.2879,0.292,0.2866,0.2867,0.2875,0.2971,0.2978,0.2986,0.2916,0.2917,0.2918,0.2969,0,0.2654,0.2708,0.271,0.276,0.2786,0.2778,0.2805,0.2822,0.2829,0.2851,0.286,0.2886,0.2872,0.2881,0.2901,0.2911,0.2939,0.2907,0.294,0.2941,0.2934,0.2995,0.3003,0.305,0.2975,0.2977,0.2977,0,0.2723,0.2743,0.2795,0.2813,0.2824,0.2848,0.2872,0.2894,0.2912,0.2916,0.2933,0.293,0.2961,0.294,0.2983,0.2961,0.2974,0.2981,0.2983,0.2985,0.2961,0.2999,0.3065,0.3071,0.2988,0.2987,0.2986,0,0.2764,0.2805,0.2841,0.2851,0.2873,0.289,0.29,0.2917,0.2932,0.2953,0.2963,0.2987,0.3001,0.302,0.3024,0.3008,0.3066,0.3045,0.3069,0.3069,0.3082,0.3081,0.315,0.3092,0.3091,0.3091,0.3091,0,0.2821,0.2853,0.2859,0.2882,0.2916,0.2918,0.2953,0.2961,0.2976,0.3,0.2995,0.3017,0.3021,0.3044,0.3047,0.3081,0.3088,0.3091,0.3092,0.3091,0.3091,0.31,0.3097,0.3093,0.3093,0.3092,0.3092,0,0.2873,0.2879,0.2917,0.2934,0.2939,0.2964,0.2978,0.2999,0.3005,0.3035,0.3042,0.3051,0.3078,0.3084,0.3115,0.3118,0.3158,0.3155,0.3151,0.3151,0.3174,0.3172,0.3252,0.3262,0.3197,0.3197,0.3198,0,0.2909,0.2933,0.2952,0.2967,0.2977,0.3002,0.3017,0.3019,0.3035,0.3057,0.3075,0.3101,0.3122,0.3164,0.3174,0.3198,0.3196,0.3222,0.3199,0.3198,0.3195,0.3193,0.3195,0.3226,0.3227,0.3227,0.3228,0,0.2972,0.2973,0.2995,0.3018,0.3036,0.3054,0.3071,0.3084,0.3089,0.3107,0.3133,0.3149,0.3181,0.3206,0.3229,0.3239,0.3234,0.3235,0.3241,0.3241,0.3237,0.3239,0.3162,0.3233,0.3232,0.3232,0.3232,0.3232,0.3017,0.3037,0.3053,0.3077,0.309,0.3106,0.3126,0.3134,0.3156,0.3181,0.3181,0.321,0.3227,0.3258,0.3269,0.3291,0.3283,0.3293,0.3295,0.3298,0.3299,0.3234,0.3296,0.3296,0.3295,0.3295,0.3295,0,0.3079,0.3088,0.3111,0.3134,0.3153,0.3146,0.3164,0.318,0.3205,0.3221,0.3241,0.3271,0.3295,0.3306,0.3329,0.3345,0.3343,0.3351,0.335,0.3352,0.3306,0.3297,0.3352,0.3352,0.3352,0.3352,0.3352,0.3352,0.3113,0.3147,0.315,0.3189,0.3199,0.3226,0.3237,0.3251,0.3264,0.3297,0.3317,0.3323,0.3337,0.3361,0.3383,0.3385,0.3394,0.3403,0.3404,0.3361,0.3355,0.335,0.3342,0.3405,0.3405,0.3449,0.3449,0.3449]}]]